Regional Weather Roundup
Issued by NWS

Home | Current Version | Previous Version | Text Only | Print | Product List | Glossary Off
Versions: 1 2 3 4 5 6 7 8 9 10 11 12 13 14 15 16 17 18 19 20 21 22 23 24 25 26 27 28 29 30 31 32 33 34 35 36 37 38 39 40 41 42 43 44 45 46 47 48 49 50

000
ASUS43 KMKX 251620
RWRWI

WISCONSIN REGIONAL WEATHER ROUNDUP
NATIONAL WEATHER SERVICE MILWAUKEE/SULLIVAN WI
1100 AM CDT FRI JUL 25 2014

NOTE: "FAIR" INDICATES FEW OR NO CLOUDS BELOW 12,000 FEET WITH NO
SIGNIFICANT WEATHER AND/OR OBSTRUCTIONS TO VISIBILITY.

WIZ001-002-006>008-014>016-023>028-251700-
NORTHWEST WISCONSIN

CITY           SKY/WX    TMP DP  RH WIND       PRES   REMARKS
SUPERIOR ARPT  CLOUDY    63  58  84 NE6       29.80F
ASHLAND        CLOUDY    70  62  76 SW9       29.83F
HAYWARD        CLOUDY    66  61  84 SE6       29.86S
SIREN          CLOUDY    69  64  85 SW5       29.83S
RICE LAKE      CLOUDY    65  61  85 S3        29.87R
LADYSMITH      CLOUDY    65  60  83 S8        29.90R
EAU CLAIRE     CLOUDY    66  63  90 SW8G22    29.84R
MENOMONIE      CLOUDY    69  64  85 S12       29.82S
NEW RICHMOND   CLOUDY    70  65  84 SW14      29.82S
OSCEOLA        CLOUDY    71  67  88 SW13      29.84S
$$

WIZ003>005-009-010-017-018-251700-
NORTH CENTRAL WISCONSIN

CITY           SKY/WX    TMP DP  RH WIND       PRES   REMARKS
WOODRUFF       CLOUDY    69  62  77 SW13      29.88F
RHINELANDER    CLOUDY    64  59  83 SW10G20   29.90R
EAGLE RIVER    CLOUDY    64  59  83 S5        29.89S
LAND O LAKES   CLOUDY    65  59  80 S7        29.90S
PHILLIPS       CLOUDY    65  59  81 SW12      29.88R
TOMAHAWK       CLOUDY    65  59  81 S5        29.91S
MEDFORD        CLOUDY    64  59  84 S13       29.89S
MERRILL        CLOUDY    65  60  83 S7        29.90S
$$

WIZ029-030-035-036-043>047-251700-
CENTRAL WISCONSIN

CITY           SKY/WX    TMP DP  RH WIND       PRES   REMARKS
WAUSAU         CLOUDY    66  59  78 S13       29.89F
MOSINEE        LGT RAIN  63  59  88 S9        29.93R
MARSHFIELD     LGT RAIN  63  59  87 S10       29.86F
STEVENS POINT  CLOUDY    64  56  75 S13G23    29.91F
WAUPACA        CLOUDY    69  59  70 S14       29.94R
WAUTOMA        CLOUDY    67  58  72 SW10      29.94R
WISC RAPIDS    CLOUDY    66  58  75 SW12      29.91F
CAMP DOUGLAS   DRIZZLE   63  63 100 SE7       29.92F
$$

WIZ011>013-019>022-031-037>040-048>050-251700-
NORTHEAST WISCONSIN

CITY           SKY/WX    TMP DP  RH WIND       PRES   REMARKS
ANTIGO         CLOUDY    62  59  90 S12       29.92F
STURGEON BAY   CLOUDY    72  57  60 S8        29.92F
GREEN BAY      CLOUDY    68  58  70 S6        29.93S
MANITOWOC      CLOUDY    69  56  62 SE10      29.93F
APPLETON       NOT AVBL
CLINTONVILLE   CLOUDY    64  57  77 W3        29.94R
OSHKOSH        LGT RAIN  66  58  75 SW12G21   29.94R
$$

WIZ032>034-041-042-053>061-251700-
SOUTHWEST WISCONSIN

CITY           SKY/WX    TMP DP  RH WIND       PRES   REMARKS
LA CROSSE      CLOUDY    67  60  78 S12       29.89F
SPARTA         CLOUDY    63  61  91 S6        29.91F
VIROQUA        CLOUDY    63  61  94 S8        29.92S
BOSCOBEL       CLOUDY    65  58  78 VRB6      29.90F
PRAIRIE DU CHI CLOUDY    64  58  80 SE6       29.86R
PLATTEVILLE    FAIR      62  59  91 S22G28    29.89F
$$

WIZ056-057-062-063-064-067-068-251700-
SOUTH CENTRAL WISCONSIN

CITY           SKY/WX    TMP DP  RH WIND       PRES   REMARKS
BARABOO/DELLS  CLOUDY    62  58  86 SW8       29.93F
LONE ROCK      CLOUDY    69  59  70 S14       29.92F
WATERTOWN      LGT RAIN  64  57  78 S8        29.96S
MADISON        CLOUDY    67  59  75 S9        29.97R
MIDDLETON      CLOUDY    67  59  75 S8        29.96S
MONROE         RAIN      64  59  82 S21G28    29.95F
JANESVILLE     PTSUNNY   70  55  60 SW20      29.98S
$$

WIZ051-052-058>065-066-070>072-251700-
SOUTHEAST WISCONSIN

CITY           SKY/WX    TMP DP  RH WIND       PRES   REMARKS
MILWAUKEE      PTSUNNY   72  55  55 S12       29.96F
WAUKESHA       CLOUDY    64  54  68 S16       29.97F
MILWAUKEE/TIMM SUNNY     72  52  49 S13       29.96F
RACINE         CLOUDY    73  56  54 S14G20    29.99F
BURLINGTON     CLOUDY    68  57  68 S9        29.97F
KENOSHA        CLOUDY    72  56  57 S15       30.00F
FOND DU LAC    LGT RAIN  67  56  67 SW10      29.95R
SHEBOYGAN      PTSUNNY   72  57  59 S12       29.94F
WEST BEND      PTSUNNY   68  54  60 S9        29.94F
JUNEAU         CLOUDY    65  54  65 S13       29.97R
$$

LSZ147-162-251700-
LAKE SUPERIOR

STATION/POSITION TIME  TEMP    WIND        PRES    WAVE
                       AIR SEA DIR/SP/G            HT/PER
                 (UTC) (F)     (DEG/KT/KT) (MB)    (FT/S)
$$

LMZ867-665-643>646-251700-
LAKE MICHIGAN

STATION/POSITION TIME  TEMP    WIND        PRES    WAVE
                       AIR SEA DIR/SP/G            HT/PER
                 (UTC) (F)     (DEG/KT/KT) (MB)    (FT/S)
$$

TC  - TEMPERATURE IN CELSIUS
VSB - VISIBILITY IN STATUTE MILES
WCI - WIND CHILL INDEX
HX  - HEAT INDEX




USA.gov is the U.S. government's official web portal to all federal, state and local government web resources and services.